Location: Unspecified
(41.5516°N, 88.1098°W)
Time: 15:19:57
(UTC-05:00)

Okean 3 - Visible Passes

Search period start: 05 May 2015 00:00
Search period end: 15 May 2015 00:00
Orbit: 581 x 605 km, 82.5° (Epoch: 05 May)

Date Brightness Start Highest point End Pass type
(mag) Time Alt. Az. Time Alt. Az. Time Alt. Az.
05 May 3.4 20:23:15 10° S 20:27:29 76° E 20:31:47 10° N visible
06 May 3.9 20:32:28 10° SSW 20:36:43 69° W 20:40:59 10° N visible
07 May 4.8 20:41:54 10° SSW 20:45:59 43° WNW 20:50:06 10° N visible
08 May 5.8 20:51:34 10° SW 20:55:19 28° WNW 20:59:02 10° NNW visible
09 May 6.4 21:01:33 10° WSW 21:04:42 19° WNW 21:07:47 10° NNW visible
10 May 6.8 21:12:02 10° W 21:14:09 13° WNW 21:16:05 10° NW visible
